Hourly Weather Roundup
Issued by NWS Central Illinois

Home | Current Version | Previous Version | Text Only | Print | Product List | Glossary On
Versions: 1 2 3 4 5 6 7 8 9 10 11 12 13 14 15 16 17 18 19 20 21 22 23 24 25 26 27 28 29 30 31 32 33 34 35 36 37 38 39 40 41 42 43 44 45 46 47 48 49 50
482
NZUS43 KILX 101610
HWRILX

AREA WEATHER ROUNDUP
NATIONAL WEATHER SERVICE, LINCOLN IL
1000 AM CST WED FEB 10 2016


CITY           SKY/WX    TMP DP  RH WIND       PRES   REMARKS
BLOOMINGTON    SUNNY     13   2  61 NW12      30.09F WCI  -1
CHAMPAIGN      SUNNY     14   5  67 W14       30.10R WCI  -1
DANVILLE       MOSUNNY   11   3  69 W14       30.07R WCI  -4
DECATUR        MOSUNNY   15   4  61 NW10      30.12S WCI   2
EFFINGHAM      MOSUNNY   17   8  69 W10       30.18R WCI   4
FLORA          SUNNY     20   7  58 W10G17    30.19R WCI   8
GALESBURG      MOSUNNY   13   4  66 W9        30.11S WCI   1
JACKSONVILLE   CLOUDY    17   6  61 W8        30.15F WCI   7
LACON          SUNNY     13   1  57 NW10      30.11S WCI   0
LAWRENCEVILLE  SUNNY     16   5  62 W15       30.18R WCI   1
LITCHFIELD     MOSUNNY   16   5  61 W15       30.16S WCI   1
$$


CITY           SKY/WX    TMP DP  RH WIND       PRES   REMARKS
LINCOLN        CLOUDY    16   5  63 W8        30.12F WCI   5
MACOMB         MOSUNNY   14   6  70 NW9       30.16S WCI   2
MATTOON        SUNNY     13   4  67 NW14      30.12R WCI  -2
MT CARMEL AP   SUNNY     18   5  57 NW13      30.17S WCI   4
OLNEY-NOBLE AP SUNNY     19   9  63 W12       30.18S WCI   7
PARIS          MOSUNNY   13   5  71 NW16      30.13R WCI  -4
PEORIA         SUNNY     14   1  56 W10       30.11F WCI   1
PONTIAC        SUNNY     13   5  68 NW14      30.10S WCI  -2
RANTOUL        MOSUNNY   15   6  67 NW15      30.09F WCI   0
ROBINSON       SUNNY     16   6  65 W17       30.18R WCI   0
SPRINGFIELD    PTSUNNY   16   6  65 W7        30.15S WCI   6
TAYLORVILLE    CLOUDY    16   5  62 W10       30.15S WCI   3
$$

...REGIONAL REPORTS...


CITY           SKY/WX    TMP DP  RH WIND       PRES   REMARKS
CHICAGO O`HARE PTSUNNY   13   2  61 NW10      30.03S WCI   0
KANKAKEE       MOSUNNY   13   2  60 NW10      30.08R WCI   0
MOLINE         MOSUNNY   13   0  56 W9        30.12S WCI   1
MOUNT STERLING CLOUDY    15   5  66 W6        30.13F WCI   6
MOUNT VERNON   MOSUNNY   19   7  58 W5        30.19S WCI  13
PITTSFIELD     MOSUNNY   17   7  64 W3        30.16F
QUINCY         CLOUDY    16   4  59 W7        30.14S WCI   6
ROCKFORD       MOSUNNY   12   0  58 NW14      30.08S WCI  -3
$$


CITY           SKY/WX    TMP DP  RH WIND       PRES   REMARKS
BURLINGTON     CLOUDY    14   3  61 VRB6      30.13S WCI   5
CEDAR RAPIDS   CLOUDY    10   1  67 N6        30.11S WCI   0
DES MOINES     LGT SNOW  17  11  77 SE3       30.10S VSB 3/4
KIRKSVILLE     LGT SNOW  17  11  77 SW3       30.13S VSB 1
OTTUMWA        LGT SNOW  15   8  73 CALM      30.12S
ST LOUIS       CLOUDY    21   6  52 W9        30.19S WCI  11
$$


CITY           SKY/WX    TMP DP  RH WIND       PRES   REMARKS
TERRE HAUTE    PTSUNNY   14   3  61 NW13G22   30.13R WCI   0
EVANSVILLE     SUNNY     20   5  52 W14G21    30.20R WCI   7
INDIANAPOLIS   PTSUNNY   14   4  64 W17       30.05R WCI  -3
LAFAYETTE      MOSUNNY   13   5  70 NW13      30.07R WCI  -2
MADISON        MOSUNNY    8  -3  61 NW10      30.04S WCI  -6
MILWAUKEE      MOSUNNY   12  -2  53 NW10      30.02R WCI  -1
$$






USA.gov is the U.S. government's official web portal to all federal, state and local government web resources and services.